DW1653 Weather Reports


time (UTC)temp
F
wind
direction
speed
knots
gust
knots
rain 1hr
in
rain 24hr
in
rain mn
in
humidity
%
barometer
mb
20260504004821 55 229 0.9 1.7 0.00 0.00 0.00 39 1013.0
20260504004332 56 229 0.9 1.7 0.00 0.00 0.00 39 1012.9
20260504003828 56 229 0.9 1.7 0.00 0.00 0.00 39 1012.8
20260504003339 56 229 0.9 1.7 0.00 0.00 0.00 38 1012.8
20260504002829 56 234 0.9 2.6 0.00 0.00 0.00 37 1012.7
20260504002321 56 236 0.9 3.5 0.00 0.00 0.00 36 1012.7
20260504001832 57 215 1.7 5.2 0.00 0.00 0.00 36 1012.6
20260504001345 57 232 0.9 5.2 0.00 0.00 0.00 35 1012.5
20260504000815 57 240 0.9 4.3 0.00 0.00 0.00 34 1012.5
20260504000346 58 266 1.7 4.3 0.00 0.00 0.00 34 1012.4
20260503235816 58 240 2.6 6.1 0.00 0.00 0.00 34 1012.3
20260503235348 58 276 2.6 5.2 0.00 0.00 0.00 33 1012.2
20260503234818 58 211 2.6 7.0 0.00 0.00 0.00 33 1012.2
20260503234314 59 239 3.5 7.0 0.00 0.00 0.00 32 1012.1
20260503233828 59 274 3.5 7.8 0.00 0.00 0.00 32 1012.1
20260503233320 59 253 6.1 9.6 0.00 0.00 0.00 31 1012.0
20260503232815 59 261 5.2 8.7 0.00 0.00 0.00 31 1012.0
20260503232326 59 281 4.3 7.0 0.00 0.00 0.00 31 1012.1
20260503231817 60 272 2.6 7.0 0.00 0.00 0.00 31 1012.2
20260503231328 60 261 2.6 7.0 0.00 0.00 0.00 30 1012.1
20260503230840 60 302 3.5 7.0 0.00 0.00 0.00 31 1012.1
20260503230315 60 309 3.5 8.7 0.00 0.00 0.00 30 1012.0
20260503225826 60 295 3.5 10.4 0.00 0.00 0.00 30 1011.9
20260503225318 60 275 2.6 9.6 0.00 0.00 0.00 30 1011.8
20260503224829 61 285 4.3 12.2 0.00 0.00 0.00 30 1011.8
20260503224321 61 5 1.7 12.2 0.00 0.00 0.00 30 1011.8
20260503223833 61 313 3.5 13.9 0.00 0.00 0.00 29 1011.8
20260503223326 61 301 5.2 13.9 0.00 0.00 0.00 28 1011.8
20260503222818 61 294 3.5 13.9 0.00 0.00 0.00 28 1011.8
20260503222351 62 314 3.5 9.6 0.00 0.00 0.00 29 1011.7
20260503221825 61 288 4.3 9.6 0.00 0.00 0.00 29 1011.7
20260503221324 61 345 4.3 9.6 0.00 0.00 0.00 29 1011.6
20260503220815 61 307 4.3 16.5 0.00 0.00 0.00 30 1011.7
20260503220327 61 259 2.6 16.5 0.00 0.00 0.00 29 1011.8
20260503215839 61 271 6.1 15.6 0.00 0.00 0.00 28 1011.7
20260503215333 62 277 7.0 16.5 0.00 0.00 0.00 28 1011.7
20260503214845 62 302 7.8 16.5 0.00 0.00 0.00 28 1011.6
20260503214316 62 313 6.1 13.9 0.00 0.00 0.00 29 1011.6
20260503213827 62 306 5.2 10.4 0.00 0.00 0.00 29 1011.6
20260503213339 62 327 4.3 12.2 0.00 0.00 0.00 29 1011.7
20260503212829 62 5 6.1 12.2 0.00 0.00 0.00 29 1011.5
20260503212325 62 254 4.3 11.3 0.00 0.00 0.00 29 1011.5
20260503211817 62 305 6.1 11.3 0.00 0.00 0.00 29 1011.6
20260503210826 63 325 6.1 15.6 0.00 0.00 0.00 30 1011.6
20260503210318 62 347 3.5 16.5 0.00 0.00 0.00 29 1011.4
20260503205830 63 310 5.2 15.6 0.00 0.00 0.00 29 1011.4
20260503205321 63 296 3.5 9.6 0.00 0.00 0.00 29 1011.4
20260503204834 62 355 4.3 13.9 0.00 0.00 0.00 29 1011.4
20260503204330 62 328 4.3 13.9 0.00 0.00 0.00 29 1011.5
20260503203820 62 323 6.1 13.0 0.00 0.00 0.00 29 1011.4
20260503203333 62 285 4.3 13.9 0.00 0.00 0.00 30 1011.4
20260503202823 62 348 5.2 13.9 0.00 0.00 0.00 29 1011.3
20260503202315 62 292 4.3 12.2 0.00 0.00 0.00 30 1011.4
20260503201826 62 253 1.7 14.8 0.00 0.00 0.00 30 1011.4
20260503201317 62 290 6.1 14.8 0.00 0.00 0.00 30 1011.6
20260503200851 62 288 4.3 14.8 0.00 0.00 0.00 31 1011.6
20260503200322 62 263 5.2 15.6 0.00 0.00 0.00 30 1011.6
20260503195818 62 319 4.3 14.8 0.00 0.00 0.00 30 1011.6
20260503195329 63 348 3.5 14.8 0.00 0.00 0.00 31 1011.7
20260503194820 63 294 5.2 14.8 0.00 0.00 0.00 30 1011.7
20260503194332 63 58 4.3 14.8 0.00 0.00 0.00 33 1011.8
20260503193823 62 289 5.2 14.8 0.00 0.00 0.00 31 1011.8
20260503193315 62 303 3.5 13.0 0.00 0.00 0.00 31 1011.8
20260503192826 61 257 6.1 13.0 0.00 0.00 0.00 33 1011.9
20260503192317 61 284 4.3 18.2 0.00 0.00 0.00 32 1012.0
20260503191849 61 327 7.8 18.2 0.00 0.00 0.00 32 1012.0
20260503191324 62 269 8.7 17.4 0.00 0.00 0.00 31 1012.0
20260503190819 63 305 3.5 12.2 0.00 0.00 0.00 33 1012.1
20260503190330 61 281 4.3 15.6 0.00 0.00 0.00 33 1012.1
20260503185821 62 290 5.2 14.8 0.00 0.00 0.00 31 1012.1
20260503185333 62 287 5.2 14.8 0.00 0.00 0.00 32 1012.2
20260503184825 62 303 4.3 11.3 0.00 0.00 0.00 32 1012.2
20260503184316 61 298 2.6 9.6 0.00 0.00 0.00 34 1012.2
20260503183827 60 339 3.5 12.2 0.00 0.00 0.00 33 1012.2
20260503183322 61 296 6.1 12.2 0.00 0.00 0.00 32 1012.4
20260503182834 60 291 3.5 11.3 0.00 0.00 0.00 35 1012.3
20260503182326 60 299 4.3 11.3 0.00 0.00 0.00 34 1012.4
20260503181816 59 70 4.3 13.0 0.00 0.00 0.00 36 1012.3
20260503181328 58 296 2.6 13.0 0.00 0.00 0.00 35 1012.4
20260503180312 59 327 4.3 12.2 0.00 0.00 0.00 34 1012.4
20260503175826 60 304 3.5 13.0 0.00 0.00 0.00 35 1012.3
20260503175322 59 315 3.5 16.5 0.00 0.00 0.00 34 1012.4
20260503174812 58 252 6.1 16.5 0.00 0.00 0.00 35 1012.5
20260503174327 58 302 3.5 13.9 0.00 0.00 0.00 36 1012.5
20260503173819 58 344 4.3 15.6 0.00 0.00 0.00 36 1012.6
20260503173331 58 40 3.5 13.0 0.00 0.00 0.00 36 1012.5
20260503172845 58 308 5.2 15.6 0.00 0.00 0.00 34 1012.5
20260503172314 59 343 7.0 15.6 0.00 0.00 0.00 34 1012.5
20260503171826 59 351 6.1 14.8 0.00 0.00 0.00 34 1012.4
20260503171321 58 350 6.1 14.8 0.00 0.00 0.00 36 1012.4
20260503170833 57 312 2.6 13.9 0.00 0.00 0.00 40 1012.5
20260503170345 57 269 6.1 13.9 0.00 0.00 0.00 37 1012.4
20260503150821 56 349 7.0 18.2 0.00 0.00 0.00 39 1012.9
20260503150315 56 317 7.0 18.2 0.00 0.00 0.00 40 1012.9
20260503131324 51 290 2.6 14.8 0.00 0.00 0.00 51 1012.8
20260503130815 51 281 5.2 11.3 0.00 0.00 0.00 51 1012.8
20260503130327 50 345 4.3 13.9 0.00 0.00 0.00 52 1012.8
20260503110812 47 340 2.6 7.0 0.00 0.00 0.00 56 1011.9
20260503110346 47 310 1.7 7.0 0.00 0.00 0.00 56 1011.9
20260503090339 48 327 5.2 9.6 0.00 0.00 0.00 52 1010.2
20260503081343 49 337 1.7 7.0 0.00 0.00 0.00 52 1010.2
20260503080818 49 333 2.6 8.7 0.00 0.00 0.00 52 1010.1
20260503080349 49 350 2.6 8.7 0.00 0.00 0.00 52 1010.1
20260503072815 50 315 2.6 9.6 0.00 0.00 0.00 50 1010.1
20260503071826 50 342 3.5 7.0 0.00 0.00 0.00 51 1010.2
20260503071316 50 340 3.5 7.0 0.00 0.00 0.00 51 1010.2
20260503070828 50 327 2.6 7.0 0.00 0.00 0.00 51 1010.2
20260503070319 50 337 2.6 6.1 0.00 0.00 0.00 51 1010.2
20260503054825 51 333 2.6 7.8 0.00 0.00 0.00 52 1010.4
20260503054316 51 333 3.5 7.8 0.00 0.00 0.00 52 1010.5
20260503053829 51 318 1.7 7.0 0.00 0.00 0.00 53 1010.5
20260503053320 51 332 2.6 7.0 0.00 0.00 0.00 52 1010.4
20260503052831 51 327 2.6 7.0 0.00 0.00 0.00 53 1010.4
20260503052323 51 347 2.6 6.1 0.00 0.00 0.00 53 1010.3
20260503051814 51 355 2.6 5.2 0.00 0.00 0.00 54 1010.5
20260503051330 51 350 1.7 7.0 0.00 0.00 0.00 54 1010.5
20260503050825 51 346 2.6 7.0 0.00 0.00 0.00 54 1010.4
20260503050319 51 323 3.5 7.8 0.00 0.00 0.00 54 1010.5
20260503045832 51 315 2.6 7.8 0.00 0.00 0.00 55 1010.5
20260503045324 51 334 1.7 7.0 0.00 0.00 0.00 56 1010.7
20260503044816 51 336 3.5 7.0 0.00 0.00 0.00 56 1010.7
20260503044347 51 317 2.6 6.1 0.00 0.00 0.00 57 1010.9
20260503043818 51 325 0.9 6.1 0.00 0.00 0.00 57 1010.9
20260503043330 51 350 1.7 5.2 0.00 0.00 0.00 58 1011.0
20260503042825 51 335 0.9 7.0 0.00 0.00 0.00 58 1011.1
20260503042336 51 324 1.7 7.0 0.00 0.00 0.00 58 1011.1
20260503041827 51 332 1.7 5.2 0.00 0.00 0.00 59 1011.1
20260503041321 51 327 1.7 5.2 0.00 0.00 0.00 60 1011.1
20260503040853 51 329 0.9 3.5 0.00 0.00 0.00 61 1011.1
20260503040323 51 333 0.9 3.5 0.00 0.00 0.00 62 1011.0
20260503035854 51 324 1.7 5.2 0.00 0.00 0.00 63 1010.9
20260503035344 51 347 1.7 5.2 0.00 0.00 0.00 64 1010.8
20260503034814 51 348 2.6 3.5 0.00 0.00 0.00 65 1010.8
20260503034325 51 340 0.9 4.3 0.00 0.00 0.00 67 1011.0
20260503033821 51 333 0.9 4.3 0.00 0.00 0.00 67 1011.0
20260503033333 51 323 0.9 4.3 0.00 0.00 0.00 67 1011.0
20260503032824 51 327 1.7 6.1 0.00 0.00 0.00 67 1010.9
20260503032336 51 342 2.6 6.1 0.00 0.00 0.00 69 1011.0
20260503031826 51 322 2.6 5.2 0.00 0.00 0.00 71 1011.1
20260503031318 51 329 1.7 4.3 0.00 0.00 0.00 73 1011.0
20260503030830 52 313 0.9 2.6 0.00 0.00 0.00 74 1011.0
20260503030320 52 5 0.9 2.6 0.00 0.00 0.00 75 1011.0
20260503025815 52 332 0.0 4.3 0.00 0.00 0.00 75 1011.0
20260503024825 52 335 0.0 2.6 0.00 0.00 0.00 77 1010.9
20260503024315 52 339 1.7 4.3 0.00 0.00 0.00 78 1010.8
20260503023827 52 319 1.7 4.3 0.00 0.00 0.00 79 1010.8
20260503023319 52 333 0.9 3.5 0.00 0.00 0.00 79 1010.9
20260503022831 52 288 0.9 3.5 0.00 0.00 0.00 79 1011.0
20260503022342 52 286 0.9 2.6 0.00 0.00 0.00 79 1011.1
20260503021852 52 286 1.7 3.5 0.00 0.00 0.00 79 1011.2
20260503021323 52 253 2.6 4.3 0.00 0.00 0.00 78 1011.1
20260503020834 52 287 1.7 3.5 0.00 0.00 0.00 78 1011.0
20260503020330 52 283 2.6 3.5 0.00 0.00 0.00 78 1011.1
20260503015822 52 261 0.9 3.5 0.00 0.00 0.00 78 1010.9
20260503015334 52 252 1.7 4.3 0.00 0.00 0.00 78 1011.1
20260503014824 52 234 0.9 2.6 0.00 0.00 0.00 78 1011.1
20260503014316 52 265 1.7 3.5 0.00 0.00 0.00 77 1011.2
20260503013828 52 267 1.7 3.5 0.00 0.00 0.00 77 1011.2
20260503013322 52 277 1.7 4.3 0.00 0.00 0.00 77 1011.1
20260503012833 52 275 1.7 4.3 0.00 0.00 0.00 77 1011.1
20260503012328 53 239 1.7 3.5 0.00 0.00 0.00 76 1011.2
20260503011820 53 238 1.7 3.5 0.00 0.00 0.00 76 1011.1
20260503011331 53 246 1.7 3.5 0.00 0.00 0.00 76 1011.2
20260503010843 53 202 0.9 2.6 0.00 0.00 0.00 76 1011.1
20260503010314 53 228 0.9 2.6 0.00 0.00 0.00 75 1010.9
20260503005829 53 203 0.0 2.6 0.00 0.00 0.00 75 1010.9
20260503005341 53 188 0.9 2.6 0.00 0.00 0.00 75 1010.9